sat.trackr.live / text

‹ back to catalog

ONEWEB-0344

NORAD 49210 · 2021-083AA

PAYLOAD ACTIVE UNKNOWN

§ Identity

Operator
Country
UK
Launch date
2021-09-14
Launch site
TYMSC
Launch vehicle
Mass (kg)
RCS (m²)

Purposes: comms

External: N2YO · Heavens-Above · Gunter

§ Orbital elements

Epoch: 2026-05-25T04:34:11.169120Z

Period
109.63 min
Inclination
87.8931°
Eccentricity
0.0002441
Mean motion
13.13461502 rev/d
Perigee alt
1,207.9 km
Apogee alt
1,211.7 km
Semi-major
7,587.9 km
B*
-1.1171e-4
RAAN
324.8247°
Arg perigee
96.1112°
Mean anomaly
264.0296°
Rev number
22,787

§ Raw data

ONEWEB-03441 49210U 21083AA  26145.19040705 -.00000028  00000+0 -11171-3 0  99992 49210  87.8931 324.8247 0002441  96.1112 264.0296 13.13461502227876

JSON: /api/v1/satellites/49210 · /tle

For live sub-satellite position, see the globe view (requires WebGL).

§ Visibility from observer

Set your observer location to see the next 7 days of passes ≥ 10°. The values pass through the URL so the page stays shareable.

No JS? Fill the form by hand. The geolocation button needs JavaScript.